"Pseudo-MPEC" for ZTF108x

Created 2025 Dec 7 14:35:12 UT using Find_Orb

Click here for an explanation of pseudo-MPECs

 
 Astrometry: 
     ZTF108x*0C2025 11 27.34891306 01 30.442+17 24 55.68   ~BRL5 18.44RUNEOCPI41
     ZTF108x 0C2025 11 27.34926106 01 28.430+17 24 51.25   ~BRL5 18.44RUNEOCPI41
     ZTF108x 0C2025 11 27.34938506 01 27.775+17 24 49.65   ~BRL5 17.73RUNEOCPI41
     ZTF108x 0C2025 11 27.34973606 01 25.757+17 24 45.36   ~BRL5 17.73RUNEOCPI41
     ZTF108x 0C2025 11 27.35177706 01 14.622+17 24 18.54   ~BRL5 18.31RUNEOCPI41
     ZTF108x 0C2025 11 27.35212506 01 12.544+17 24 14.33   ~BRL5 18.31RUNEOCPI41
     ZTF108x 0C2025 11 27.35224706 01 12.010+17 24 12.76   ~C2EK 18.11RUNEOCPI41
     ZTF108x 0C2025 11 27.35259506 01 09.995+17 24 07.69   ~C2EK 18.11RUNEOCPI41

Station data:
(I41) Palomar Mountain--ZTF  (N33.357336 W116.859780)  US/California.
   Observers B. T. Bolin, Z. T. F. Collaboration. Measurers B. T. Bolin,
   Z.-Y. Lin, F. J. Masci. 1.2-m f/2.4 Schmidt.

Orbital elements:  ZTF108x
   Perihelion 2026 Feb 11.343660 +/- 78.7 TT =  8:14:52.2 (JD 2461082.843660)
Epoch 2025 Nov 27.0 TT = JDT 2461006.5   Earth MOID: 0.0018   Ve: 0.0241
M 215.763155782 +/- 90              Me: 0.0470                   AutoNEOCP
n   1.889310042 +/- 0.539           Peri.  352.155847 +/- 60
a   0.648038130 +/- 0.123           Node   241.158406 +/- 70
e   0.58649758 +/- 0.178            Incl.    1.025339 +/- 56
P   0.522/190.542d         H 27.03  G  0.15   U 12.4  SR
q 0.267965335 +/- 0.232    Q 1.028110926 +/- 0.511        (J2000 ecliptic)
From 8 observations 2025 Nov. 27 (5.3 min); mean residual 0".60
Residuals in arcseconds: 
251127 I41  .94+  .11-    251127 I41  1.1-  .21+    251127 I41  .90+  .22+    
251127 I41  .37-  .04-    251127 I41  1.0+  .12-    251127 I41  .36-  .32-    
251127 I41  .06+  .04-    251127 I41  1.1-  .20+    

Ephemerides (geocentric):
Date (UTC) HH   RA             Dec           delta  r     elong  mag " sig PA
---- --------  ------------   ------------  ------ ------ -----  --- --------
2025 12 07 15  21 12 46.263   -19 09 49.27  .06216 .95508  59.5 25.5  54d 102
2025 12 07 16  21 12 37.604   -19 10 03.82  .06245 .95487  59.4 25.6  54d 102
2025 12 07 17  21 12 29.013   -19 10 18.27  .06273 .95466  59.3 25.6  54d 102
2025 12 07 18  21 12 20.489   -19 10 32.59  .06302 .95445  59.2 25.6  54d 102
2025 12 07 19  21 12 12.031   -19 10 46.81  .06330 .95424  59.2 25.6  54d 102
2025 12 07 20  21 12 03.638   -19 11 00.91  .06359 .95403  59.1 25.6  54d 102
2025 12 07 21  21 11 55.309   -19 11 14.91  .06387 .95382  59.0 25.6  54d 102
2025 12 07 22  21 11 47.043   -19 11 28.80  .06415 .95360  58.9 25.6  54d 102
2025 12 07 23  21 11 38.840   -19 11 42.58  .06444 .95339  58.9 25.7  54d 102
2025 12 08 00  21 11 30.697   -19 11 56.27  .06472 .95318  58.8 25.7  54d 102
2025 12 08 01  21 11 22.616   -19 12 09.85  .06501 .95297  58.7 25.7  54d 102
2025 12 08 02  21 11 14.594   -19 12 23.33  .06529 .95276  58.6 25.7  54d 102
2025 12 08 03  21 11 06.631   -19 12 36.71  .06558 .95254  58.6 25.7  54d 102
2025 12 08 04  21 10 58.726   -19 12 50.00  .06586 .95233  58.5 25.7  54d 102
2025 12 08 05  21 10 50.878   -19 13 03.19  .06615 .95212  58.4 25.7  54d 102
2025 12 08 06  21 10 43.087   -19 13 16.29  .06643 .95190  58.4 25.7  54d 102
2025 12 08 07  21 10 35.351   -19 13 29.30  .06672 .95169  58.3 25.8  54d 102
2025 12 08 08  21 10 27.671   -19 13 42.22  .06700 .95147  58.2 25.8  54d 102
2025 12 08 09  21 10 20.044   -19 13 55.05  .06728 .95126  58.1 25.8  54d 102
2025 12 08 10  21 10 12.471   -19 14 07.79  .06757 .95104  58.1 25.8  54d 102
2025 12 08 11  21 10 04.951   -19 14 20.45  .06785 .95083  58.0 25.8  54d 102
2025 12 08 12  21 09 57.483   -19 14 33.02  .06814 .95061  57.9 25.8  54d 102
2025 12 08 13  21 09 50.066   -19 14 45.51  .06842 .95040  57.9 25.8  54d 102
2025 12 08 14  21 09 42.700   -19 14 57.92  .06871 .95018  57.8 25.8  54d 102
2025 12 08 15  21 09 35.384   -19 15 10.25  .06899 .94996  57.7 25.9  54d 102
2025 12 08 16  21 09 28.118   -19 15 22.51  .06928 .94975  57.6 25.9  54d 102
2025 12 08 17  21 09 20.900   -19 15 34.68  .06956 .94953  57.6 25.9  54d 102
2025 12 08 18  21 09 13.729   -19 15 46.78  .06985 .94931  57.5 25.9  54d 102
2025 12 08 19  21 09 06.607   -19 15 58.80  .07013 .94909  57.4 25.9  54d 102
2025 12 08 20  21 08 59.531   -19 16 10.75  .07042 .94887  57.4 25.9  54d 102
2025 12 08 21  21 08 52.501   -19 16 22.63  .07070 .94866  57.3 25.9  54d 102
2025 12 08 22  21 08 45.517   -19 16 34.43  .07098 .94844  57.2 25.9  54d 102
2025 12 08 23  21 08 38.578   -19 16 46.17  .07127 .94822  57.2 26.0  54d 102
2025 12 09 00  21 08 31.683   -19 16 57.84  .07155 .94800  57.1 26.0  54d 102
2025 12 09 01  21 08 24.832   -19 17 09.44  .07184 .94778  57.0 26.0  54d 102
2025 12 09 02  21 08 18.024   -19 17 20.97  .07212 .94756  56.9 26.0  54d 102
2025 12 09 03  21 08 11.259   -19 17 32.44  .07241 .94734  56.9 26.0  54d 102
2025 12 09 04  21 08 04.536   -19 17 43.84  .07269 .94712  56.8 26.0  54d 102
2025 12 09 05  21 07 57.854   -19 17 55.18  .07298 .94690  56.7 26.0  54d 102
2025 12 09 06  21 07 51.214   -19 18 06.46  .07326 .94667  56.7 26.0  54d 102
2025 12 09 07  21 07 44.614   -19 18 17.67  .07355 .94645  56.6 26.1  54d 102
2025 12 09 08  21 07 38.054   -19 18 28.83  .07383 .94623  56.5 26.1  54d 102
2025 12 09 09  21 07 31.534   -19 18 39.92  .07412 .94601  56.5 26.1  54d 102
2025 12 09 10  21 07 25.052   -19 18 50.96  .07440 .94579  56.4 26.1  54d 102
2025 12 09 11  21 07 18.609   -19 19 01.94  .07469 .94556  56.3 26.1  54d 102
2025 12 09 12  21 07 12.204   -19 19 12.86  .07497 .94534  56.3 26.1  54d 102
2025 12 09 13  21 07 05.837   -19 19 23.73  .07526 .94512  56.2 26??  54d 102
2025 12 09 14  21 06 59.507   -19 19 34.54  .07554 .94489  56.1 26??  54d 102